Sigfox identifier Datetime Temperature Humidity SNR
003BACFC 2018-10-09 08:58:51 21 41 22.1
003BACFC 2018-10-09 07:57:46 21 40 22.2
003BACFC 2018-10-09 06:56:32 21 40 22.3
003BACFC 2018-10-09 05:55:22 21 40 21.3
003BACFC 2018-10-09 04:54:12 21 39 21.4
003BACFC 2018-10-09 01:50:45 21 38 20.4
003BACFC 2018-10-09 00:49:35 21 38 20.5
003BACFC 2018-10-08 23:48:28 21 38 20.8
003BACFC 2018-10-08 22:47:18 21 38 20.9
003BACFC 2018-10-08 21:46:10 21 37 21.2
003BACFC 2018-10-08 20:45:02 21 37 21.4
003BACFC 2018-10-08 19:43:55 21.1 37 21.4
003BACFC 2018-10-08 18:42:47 21.2 37 21.5
003BACFC 2018-10-08 17:41:41 21.2 37 21.5
003BACFC 2018-10-08 16:40:33 21.1 37 21.5
003BACFC 2018-10-08 15:39:30 21 36 21.4
003BACFC 2018-10-08 14:38:21 20.9 36 21.4
003BACFC 2018-10-08 13:37:12 20.8 36 21.4
003BACFC 2018-10-08 12:36:06 20.8 37 21.4
003BACFC 2018-10-08 11:34:57 20.6 36 21.4
003BACFC 2018-10-08 10:33:50 20.4 30 21.2
003BACFC 2018-10-08 09:32:43 20.4 30 21.3
003BACFC 2018-10-08 08:31:35 20.2 30 21
003BACFC 2018-10-08 07:30:27 20.3 32 20.7
003BACFC 2018-10-08 06:29:17 20.3 32 20.9
003BACFC 2018-10-08 05:28:07 20.3 33 20.9
003BACFC 2018-10-08 04:26:54 20.2 33 20.9
003BACFC 2018-10-08 03:25:42 20.2 34 20.9
003BACFC 2018-10-08 02:24:29 20.3 34 21
003BACFC 2018-10-08 01:23:17 20.3 35 20.9
003BACFC 2018-10-08 00:22:05 20.4 35 20.8
003BACFC 2018-10-07 23:20:55 20.4 36 20.8
003BACFC 2018-10-07 22:19:44 20.4 36 20.8
003BACFC 2018-10-07 21:18:35 20.4 37 20.8
003BACFC 2018-10-07 20:17:25 20.5 37 20.6
003BACFC 2018-10-07 19:16:14 20.6 38 20.5
003BACFC 2018-10-07 18:15:05 20.6 38 20.7
003BACFC 2018-10-07 17:13:53 20.5 38 20.7
003BACFC 2018-10-07 16:12:41 20.5 38 20.8
003BACFC 2018-10-07 15:11:28 20.5 37 20.7
003BACFC 2018-10-07 14:10:13 20.5 38 20.8
003BACFC 2018-10-07 13:08:58 20.5 38 20.9
003BACFC 2018-10-07 12:07:43 20.5 38 21.2
003BACFC 2018-10-07 11:06:29 20.4 38 21.3
003BACFC 2018-10-07 10:05:14 20.5 38 21.5
003BACFC 2018-10-07 09:04:01 20.5 38 21.5
003BACFC 2018-10-07 08:02:46 20.6 38 21.5
003BACFC 2018-10-07 07:01:33 20.6 38 21.5
003BACFC 2018-10-07 06:00:21 20.6 38 21.6
003BACFC 2018-10-07 04:59:10 20.6 39 21.4
003BACFC 2018-10-07 03:57:59 20.6 39 21.5
003BACFC 2018-10-07 02:56:47 20.6 39 21.4
003BACFC 2018-10-07 01:55:37 20.6 39 21.5
003BACFC 2018-10-07 00:54:26 20.6 39 21.2
003BACFC 2018-10-06 23:53:15 20.6 40 21.2
003BACFC 2018-10-06 22:52:04 20.6 39 21.5
003BACFC 2018-10-06 21:50:53 20.7 39 21.5
003BACFC 2018-10-06 20:49:40 20.7 39 21.5
003BACFC 2018-10-06 19:48:28 20.8 39 21.4
003BACFC 2018-10-06 18:47:11 20.8 39 21.3
003BACFC 2018-10-06 17:45:58 20.8 39 21.2
003BACFC 2018-10-06 16:44:41 20.8 39 20.9
003BACFC 2018-10-06 15:43:26 20.8 40 20.9
003BACFC 2018-10-06 14:42:11 20.8 40 21.1
003BACFC 2018-10-06 13:40:55 20.8 39 21.2
003BACFC 2018-10-06 12:39:39 20.8 39 21.2
003BACFC 2018-10-06 11:38:26 20.8 39 21
003BACFC 2018-10-06 10:37:14 20.8 39 20.7
003BACFC 2018-10-06 09:36:02 20.8 39 20.7
003BACFC 2018-10-06 08:34:51 20.8 39 20.6
003BACFC 2018-10-06 07:33:40 20.8 40 20.4
003BACFC 2018-10-06 06:32:31 20.8 40 20.3
003BACFC 2018-10-06 05:31:21 20.8 40 20.4
003BACFC 2018-10-06 04:30:10 20.9 41 20.3
003BACFC 2018-10-06 03:28:55 21 41 20.5
003BACFC 2018-10-06 02:27:38 21 41 20.2
003BACFC 2018-10-06 01:26:21 21 42 20.1
003BACFC 2018-10-06 00:25:03 21 42 20
003BACFC 2018-10-05 23:23:49 21 43 20.2
003BACFC 2018-10-05 22:22:27 21.2 43 20.2
003BACFC 2018-10-05 21:21:11 21.3 43 19.5
003BACFC 2018-10-05 20:19:51 21.3 44 19
003BACFC 2018-10-05 19:18:37 21.4 45 18.4
003BACFC 2018-10-05 18:17:19 21.5 45 18.5
003BACFC 2018-10-05 17:16:02 21.5 46 18.8
003BACFC 2018-10-05 16:14:46 21.6 46 19.2
003BACFC 2018-10-05 15:13:29 21.5 46 19.1
003BACFC 2018-10-05 14:12:10 21.5 45 19.2
003BACFC 2018-10-05 13:10:56 21.5 45 16
003BACFC 2018-10-05 12:09:38 21.4 43 14.3
003BACFC 2018-10-05 11:08:21 21.3 41 9.1
003BACFC 2018-10-05 10:07:02 21.4 44 7.1
003BACFC 2018-10-05 09:05:43 21 46 0